STARLINK-32803, 63024

Orbit data source: Space-Track

STARLINK-32803, 63024 is a payload satellite owned by SpaceX/Seattle (US) in LEO that was launched on Sat, 15 Feb 2025 UTC via an FALCON 9 launch vehicle from the Air Force Eastern Test Range (AFETR). Payload-class satellites include a variety of spacecraft equipped with specific instruments for various scientific and technological missions. These include communications satellites like Starlink; space stations such as the ISS; scientific satellites like the Hubble; Earth observation satellites from companies like Planet Labs, Umbra, and HawkEye 360; GPS; miniature CubeSats for education and research; and military/defense satellites.

Loading next visibility...
Identifier
63024, 2025-032V
Orbit
LEO
Country
Flag of USUS
Related business
Manufacturer
SpaceX/Seattle
Mission
Operational Commercial Communications
Bus & Motor
STARLINK V2M, Unknown motor
Mass
730 kg wet, ~700 kg dry
Launch date (UTC)
2025-02-15 (1 year ago)
Launch vehicle
FALCON 9
Launch site
Air Force Eastern Test Range (AFETR)
Object type
Payload
Rocket body
Debris
Shape & HBR
Box + 2 Pan, 17.7 m
Radar Cross Section
33.884 m², Large (>1 m²)

Expand to show TLE details & history
Last TLE update: 2 days ago

TLE from 2 days ago
0 STARLINK-32803
1 63024U 25032V   26170.24226432  .00020135  00000-0  73890-3 0  9999
2 63024  43.0009 122.3179 0001110 262.2723  97.8002 15.27594018 75993
Epoch: 2026-06-19T05:48Z
TLE epoch observation values (Epoch: 2026-06-19T05:48:51.637Z)
Latitude
-0.00005°
Longitude
127.62864°
Altitude
482.886 km
Speed
7.626 km/s
True Right ascension
08h 09m 16s
True Declination
0° 00' 00"
Sunlit
Object was in daylight at epoch
Visualization orbit readout
Latitude
Unknown
Longitude
Unknown
Altitude
Unknown
Speed
Unknown
Apparent Right ascension
Unknown
Apparent Declination
Unknown
Sunlit
N/A
Visualization observer readout
Local Sidereal Time
07:24:40
Azimuth
Unknown
Elevation
Unknown
Doppler factor
Unknown
Orbital elements
Apogee altitude
485.714 km
Perigee altitude
484.19 km
Semi-major axis
6,863.089 km
Eccentricity
0.00011
Inclination
43.0009°
RAAN
122.3179°
Arg. of periapsis
262.2723°
True anomaly
97.8128°
Mean anomaly
97.8002°
Eccentric anomaly
97.8065°
Mean motion
3.81737 °/min
Orbital period
94.31 mins
BSTAR
0.0007389
Loading maneuver chart data...
Computing Atmospheric mass density...
Loading historical data...
Loading historical data...
Loading historical data...
Loading historical data...
Loading historical data...
Loading historical data...
Loading historical data...

Documentation

Showing up to 5 results
|